Location: Newark
(52.0178°N, 4.7453°W)
Time: 02:39:51
(UTC+00:00)

ISS - Pass Details

Date: 28 March 2019
Orbit: 408 x 410 km, 51.6° (Epoch: 20 April)

Event Time Altitude Azimuth Distance (km) Brightness Sun altitude
Rises 21:28:41 0° 278° (W) 2,339 0.9 -23.6°
Reaches altitude 10° 21:30:46 10° 276° (W) 1,477 -0.3 -23.8°
Enters shadow 21:32:34 29° 270° (W) 775 -2.0 -24.0°
